owner,sensor,date,latitude,longitude,mass_concentration_of_chlorophyll_in_sea_water,qcFlag 
LUMCON,ioos:station:LUMCON:wisl1:1,2019-09-01T00:00:00Z,29.1144,-90.1840,15.14,11111222 
LUMCON,ioos:station:LUMCON:wisl1:1,2019-09-01T00:15:00Z,29.1144,-90.1840,14.91,11111222 
LUMCON,ioos:station:LUMCON:wisl1:1,2019-09-01T00:30:00Z,29.1144,-90.1840,15.83,11111222 
LUMCON,ioos:station:LUMCON:wisl1:1,2019-09-01T00:45:00Z,29.1144,-90.1840,15.74,11111222 
LUMCON,ioos:station:LUMCON:wisl1:1,2019-09-01T01:00:00Z,29.1144,-90.1840,15.64,11111222 
LUMCON,ioos:station:LUMCON:wisl1:1,2019-09-01T01:15:00Z,29.1144,-90.1840,16.33,11111222 
LUMCON,ioos:station:LUMCON:wisl1:1,2019-09-01T01:30:00Z,29.1144,-90.1840,15.69,11111222 
LUMCON,ioos:station:LUMCON:wisl1:1,2019-09-01T01:45:00Z,29.1144,-90.1840,15.76,11111222 
LUMCON,ioos:station:LUMCON:wisl1:1,2019-09-01T02:00:00Z,29.1144,-90.1840,15.77,11111222 
LUMCON,ioos:station:LUMCON:wisl1:1,2019-09-01T02:15:00Z,29.1144,-90.1840,16.36,11111222 
LUMCON,ioos:station:LUMCON:wisl1:1,2019-09-01T02:30:00Z,29.1144,-90.1840,16.76,11111222 
LUMCON,ioos:station:LUMCON:wisl1:1,2019-09-01T02:45:00Z,29.1144,-90.1840,16.87,11111222 
LUMCON,ioos:station:LUMCON:wisl1:1,2019-09-01T03:00:00Z,29.1144,-90.1840,18.32,11111222 
LUMCON,ioos:station:LUMCON:wisl1:1,2019-09-01T03:15:00Z,29.1144,-90.1840,17.82,11111222 
LUMCON,ioos:station:LUMCON:wisl1:1,2019-09-01T03:30:00Z,29.1144,-90.1840,18.21,11111222 
LUMCON,ioos:station:LUMCON:wisl1:1,2019-09-01T03:45:00Z,29.1144,-90.1840,18.94,11111222 
LUMCON,ioos:station:LUMCON:wisl1:1,2019-09-01T04:00:00Z,29.1144,-90.1840,18.81,11111222 
LUMCON,ioos:station:LUMCON:wisl1:1,2019-09-01T04:15:00Z,29.1144,-90.1840,18.02,11111222 
LUMCON,ioos:station:LUMCON:wisl1:1,2019-09-01T04:30:00Z,29.1144,-90.1840,18.68,11111222 
LUMCON,ioos:station:LUMCON:wisl1:1,2019-09-01T04:45:00Z,29.1144,-90.1840,18.79,11111222 
LUMCON,ioos:station:LUMCON:wisl1:1,2019-09-01T05:00:00Z,29.1144,-90.1840,17.96,11111222 
LUMCON,ioos:station:LUMCON:wisl1:1,2019-09-01T05:15:00Z,29.1144,-90.1840,18.44,11111222 
LUMCON,ioos:station:LUMCON:wisl1:1,2019-09-01T05:30:00Z,29.1144,-90.1840,17.92,11111222 
LUMCON,ioos:station:LUMCON:wisl1:1,2019-09-01T05:45:00Z,29.1144,-90.1840,17.43,11111222 
LUMCON,ioos:station:LUMCON:wisl1:1,2019-09-01T06:00:00Z,29.1144,-90.1840,17.51,11111222 
LUMCON,ioos:station:LUMCON:wisl1:1,2019-09-01T06:15:00Z,29.1144,-90.1840,16.84,11111222 
LUMCON,ioos:station:LUMCON:wisl1:1,2019-09-01T06:30:00Z,29.1144,-90.1840,18.24,11111222 
LUMCON,ioos:station:LUMCON:wisl1:1,2019-09-01T06:45:00Z,29.1144,-90.1840,17.45,11111222 
LUMCON,ioos:station:LUMCON:wisl1:1,2019-09-01T07:00:00Z,29.1144,-90.1840,16.83,11111222 
LUMCON,ioos:station:LUMCON:wisl1:1,2019-09-01T07:15:00Z,29.1144,-90.1840,16.06,11111222 
LUMCON,ioos:station:LUMCON:wisl1:1,2019-09-01T07:30:00Z,29.1144,-90.1840,14.9,11111222 
LUMCON,ioos:station:LUMCON:wisl1:1,2019-09-01T07:45:00Z,29.1144,-90.1840,16.22,11111222 
LUMCON,ioos:station:LUMCON:wisl1:1,2019-09-01T08:00:00Z,29.1144,-90.1840,14.39,11111222 
LUMCON,ioos:station:LUMCON:wisl1:1,2019-09-01T08:15:00Z,29.1144,-90.1840,13.13,11111222 
LUMCON,ioos:station:LUMCON:wisl1:1,2019-09-01T08:30:00Z,29.1144,-90.1840,13.48,11111222 
LUMCON,ioos:station:LUMCON:wisl1:1,2019-09-01T08:45:00Z,29.1144,-90.1840,13.56,11111222 
LUMCON,ioos:station:LUMCON:wisl1:1,2019-09-01T09:00:00Z,29.1144,-90.1840,9.64,11111222 
LUMCON,ioos:station:LUMCON:wisl1:1,2019-09-01T09:15:00Z,29.1144,-90.1840,8.21,11111222 
LUMCON,ioos:station:LUMCON:wisl1:1,2019-09-01T09:30:00Z,29.1144,-90.1840,7.79,11111222 
LUMCON,ioos:station:LUMCON:wisl1:1,2019-09-01T09:45:00Z,29.1144,-90.1840,6.92,11111222 
LUMCON,ioos:station:LUMCON:wisl1:1,2019-09-01T10:00:00Z,29.1144,-90.1840,6.51,11111222 
LUMCON,ioos:station:LUMCON:wisl1:1,2019-09-01T10:15:00Z,29.1144,-90.1840,6.34,11111222 
LUMCON,ioos:station:LUMCON:wisl1:1,2019-09-01T10:30:00Z,29.1144,-90.1840,6.55,11111222 
LUMCON,ioos:station:LUMCON:wisl1:1,2019-09-01T10:45:00Z,29.1144,-90.1840,6.1,11111222 
LUMCON,ioos:station:LUMCON:wisl1:1,2019-09-01T11:00:00Z,29.1144,-90.1840,5.45,11111222 
LUMCON,ioos:station:LUMCON:wisl1:1,2019-09-01T11:15:00Z,29.1144,-90.1840,5.23,11111222 
LUMCON,ioos:station:LUMCON:wisl1:1,2019-09-01T11:30:00Z,29.1144,-90.1840,5.37,11111222 
LUMCON,ioos:station:LUMCON:wisl1:1,2019-09-01T11:45:00Z,29.1144,-90.1840,5.23,11111222 
LUMCON,ioos:station:LUMCON:wisl1:1,2019-09-01T12:00:00Z,29.1144,-90.1840,5.63,11111222 
LUMCON,ioos:station:LUMCON:wisl1:1,2019-09-01T12:15:00Z,29.1144,-90.1840,4.82,11111222 
LUMCON,ioos:station:LUMCON:wisl1:1,2019-09-01T12:30:00Z,29.1144,-90.1840,4.51,11111222 
LUMCON,ioos:station:LUMCON:wisl1:1,2019-09-01T12:45:00Z,29.1144,-90.1840,4.64,11111222 
LUMCON,ioos:station:LUMCON:wisl1:1,2019-09-01T13:00:00Z,29.1144,-90.1840,4.27,11111222 
LUMCON,ioos:station:LUMCON:wisl1:1,2019-09-01T13:15:00Z,29.1144,-90.1840,4.71,11111222 
LUMCON,ioos:station:LUMCON:wisl1:1,2019-09-01T13:30:00Z,29.1144,-90.1840,3.78,11111222 
LUMCON,ioos:station:LUMCON:wisl1:1,2019-09-01T13:45:00Z,29.1144,-90.1840,3.63,11111222 
LUMCON,ioos:station:LUMCON:wisl1:1,2019-09-01T14:00:00Z,29.1144,-90.1840,3.63,11111222 
LUMCON,ioos:station:LUMCON:wisl1:1,2019-09-01T14:15:00Z,29.1144,-90.1840,3.35,11111222 
LUMCON,ioos:station:LUMCON:wisl1:1,2019-09-01T14:30:00Z,29.1144,-90.1840,3.52,11111222 
LUMCON,ioos:station:LUMCON:wisl1:1,2019-09-01T14:45:00Z,29.1144,-90.1840,3.32,11111222 
LUMCON,ioos:station:LUMCON:wisl1:1,2019-09-01T15:00:00Z,29.1144,-90.1840,3.34,11111222 
LUMCON,ioos:station:LUMCON:wisl1:1,2019-09-01T15:15:00Z,29.1144,-90.1840,3.34,11111222 
LUMCON,ioos:station:LUMCON:wisl1:1,2019-09-01T15:30:00Z,29.1144,-90.1840,3.39,11111222 
LUMCON,ioos:station:LUMCON:wisl1:1,2019-09-01T15:45:00Z,29.1144,-90.1840,3.13,11111222 
LUMCON,ioos:station:LUMCON:wisl1:1,2019-09-01T16:00:00Z,29.1144,-90.1840,3.07,11111222 
LUMCON,ioos:station:LUMCON:wisl1:1,2019-09-01T16:15:00Z,29.1144,-90.1840,3.11,11111222 
LUMCON,ioos:station:LUMCON:wisl1:1,2019-09-01T16:30:00Z,29.1144,-90.1840,3.1,11111222 
LUMCON,ioos:station:LUMCON:wisl1:1,2019-09-01T16:45:00Z,29.1144,-90.1840,3.36,11111222 
LUMCON,ioos:station:LUMCON:wisl1:1,2019-09-01T17:00:00Z,29.1144,-90.1840,4.15,11111222 
LUMCON,ioos:station:LUMCON:wisl1:1,2019-09-01T17:15:00Z,29.1144,-90.1840,3.91,11111222 
LUMCON,ioos:station:LUMCON:wisl1:1,2019-09-01T17:30:00Z,29.1144,-90.1840,3.68,11111222 
LUMCON,ioos:station:LUMCON:wisl1:1,2019-09-01T17:45:00Z,29.1144,-90.1840,3.69,11111222 
LUMCON,ioos:station:LUMCON:wisl1:1,2019-09-01T18:00:00Z,29.1144,-90.1840,4.33,11111222 
LUMCON,ioos:station:LUMCON:wisl1:1,2019-09-01T18:15:00Z,29.1144,-90.1840,3.82,11111222 
LUMCON,ioos:station:LUMCON:wisl1:1,2019-09-01T18:30:00Z,29.1144,-90.1840,3.3,11111222 
LUMCON,ioos:station:LUMCON:wisl1:1,2019-09-01T18:45:00Z,29.1144,-90.1840,3.61,11111222 
LUMCON,ioos:station:LUMCON:wisl1:1,2019-09-01T19:00:00Z,29.1144,-90.1840,3.15,11111222 
LUMCON,ioos:station:LUMCON:wisl1:1,2019-09-01T19:15:00Z,29.1144,-90.1840,3.08,11111222 
LUMCON,ioos:station:LUMCON:wisl1:1,2019-09-01T19:30:00Z,29.1144,-90.1840,3.07,11111222 
LUMCON,ioos:station:LUMCON:wisl1:1,2019-09-01T19:45:00Z,29.1144,-90.1840,2.98,11111222 
LUMCON,ioos:station:LUMCON:wisl1:1,2019-09-01T20:00:00Z,29.1144,-90.1840,2.87,11111222 
LUMCON,ioos:station:LUMCON:wisl1:1,2019-09-01T20:15:00Z,29.1144,-90.1840,2.94,11111222 
LUMCON,ioos:station:LUMCON:wisl1:1,2019-09-01T20:30:00Z,29.1144,-90.1840,4.71,11111222 
LUMCON,ioos:station:LUMCON:wisl1:1,2019-09-01T20:45:00Z,29.1144,-90.1840,4.26,11111222 
LUMCON,ioos:station:LUMCON:wisl1:1,2019-09-01T21:00:00Z,29.1144,-90.1840,4.31,11111222 
LUMCON,ioos:station:LUMCON:wisl1:1,2019-09-01T21:15:00Z,29.1144,-90.1840,3.77,11111222 
LUMCON,ioos:station:LUMCON:wisl1:1,2019-09-01T21:30:00Z,29.1144,-90.1840,3.63,11111222 
LUMCON,ioos:station:LUMCON:wisl1:1,2019-09-01T21:45:00Z,29.1144,-90.1840,4.38,11111222 
LUMCON,ioos:station:LUMCON:wisl1:1,2019-09-01T22:00:00Z,29.1144,-90.1840,5.48,11111222 
LUMCON,ioos:station:LUMCON:wisl1:1,2019-09-01T22:15:00Z,29.1144,-90.1840,4.98,11111222 
LUMCON,ioos:station:LUMCON:wisl1:1,2019-09-01T22:30:00Z,29.1144,-90.1840,8.03,11111222 
LUMCON,ioos:station:LUMCON:wisl1:1,2019-09-01T22:45:00Z,29.1144,-90.1840,10.7,11111222 
LUMCON,ioos:station:LUMCON:wisl1:1,2019-09-01T23:00:00Z,29.1144,-90.1840,12.61,11111222 
LUMCON,ioos:station:LUMCON:wisl1:1,2019-09-01T23:15:00Z,29.1144,-90.1840,13.75,11111222 
LUMCON,ioos:station:LUMCON:wisl1:1,2019-09-01T23:30:00Z,29.1144,-90.1840,12.77,11111222 
LUMCON,ioos:station:LUMCON:wisl1:1,2019-09-01T23:45:00Z,29.1144,-90.1840,13.36,11111222 
LUMCON,ioos:station:LUMCON:wisl1:1,2019-09-02T00:00:00Z,29.1144,-90.1840,14.83,11111222 
LUMCON,ioos:station:LUMCON:wisl1:1,2019-09-02T00:15:00Z,29.1144,-90.1840,15.23,11111222 
LUMCON,ioos:station:LUMCON:wisl1:1,2019-09-02T00:30:00Z,29.1144,-90.1840,12.77,11111222 
LUMCON,ioos:station:LUMCON:wisl1:1,2019-09-02T00:45:00Z,29.1144,-90.1840,16.54,11111222 
LUMCON,ioos:station:LUMCON:wisl1:1,2019-09-02T01:00:00Z,29.1144,-90.1840,12.87,11111222 
LUMCON,ioos:station:LUMCON:wisl1:1,2019-09-02T01:15:00Z,29.1144,-90.1840,12.97,11111222 
LUMCON,ioos:station:LUMCON:wisl1:1,2019-09-02T01:30:00Z,29.1144,-90.1840,12.71,11111222 
LUMCON,ioos:station:LUMCON:wisl1:1,2019-09-02T01:45:00Z,29.1144,-90.1840,11.93,11111222 
LUMCON,ioos:station:LUMCON:wisl1:1,2019-09-02T02:00:00Z,29.1144,-90.1840,12.61,11111222 
LUMCON,ioos:station:LUMCON:wisl1:1,2019-09-02T02:15:00Z,29.1144,-90.1840,12.88,11111222 
LUMCON,ioos:station:LUMCON:wisl1:1,2019-09-02T02:30:00Z,29.1144,-90.1840,13.81,11111222 
LUMCON,ioos:station:LUMCON:wisl1:1,2019-09-02T02:45:00Z,29.1144,-90.1840,13.96,11111222 
LUMCON,ioos:station:LUMCON:wisl1:1,2019-09-02T03:00:00Z,29.1144,-90.1840,15.36,11111222 
LUMCON,ioos:station:LUMCON:wisl1:1,2019-09-02T03:15:00Z,29.1144,-90.1840,16.15,11111222 
LUMCON,ioos:station:LUMCON:wisl1:1,2019-09-02T03:30:00Z,29.1144,-90.1840,16.26,11111222 
LUMCON,ioos:station:LUMCON:wisl1:1,2019-09-02T03:45:00Z,29.1144,-90.1840,16.57,11111222 
LUMCON,ioos:station:LUMCON:wisl1:1,2019-09-02T04:00:00Z,29.1144,-90.1840,16.76,11111222 
LUMCON,ioos:station:LUMCON:wisl1:1,2019-09-02T04:15:00Z,29.1144,-90.1840,17.65,11111222 
LUMCON,ioos:station:LUMCON:wisl1:1,2019-09-02T04:30:00Z,29.1144,-90.1840,17.08,11111222 
LUMCON,ioos:station:LUMCON:wisl1:1,2019-09-02T04:45:00Z,29.1144,-90.1840,18.36,11111222 
LUMCON,ioos:station:LUMCON:wisl1:1,2019-09-02T05:00:00Z,29.1144,-90.1840,18.89,11111222 
LUMCON,ioos:station:LUMCON:wisl1:1,2019-09-02T05:15:00Z,29.1144,-90.1840,19.84,11111222 
LUMCON,ioos:station:LUMCON:wisl1:1,2019-09-02T05:30:00Z,29.1144,-90.1840,19.03,11111222 
LUMCON,ioos:station:LUMCON:wisl1:1,2019-09-02T05:45:00Z,29.1144,-90.1840,17.49,11111222 
LUMCON,ioos:station:LUMCON:wisl1:1,2019-09-02T06:00:00Z,29.1144,-90.1840,16.77,11111222 
LUMCON,ioos:station:LUMCON:wisl1:1,2019-09-02T06:15:00Z,29.1144,-90.1840,17.72,11111222 
LUMCON,ioos:station:LUMCON:wisl1:1,2019-09-02T06:30:00Z,29.1144,-90.1840,18.09,11111222 
LUMCON,ioos:station:LUMCON:wisl1:1,2019-09-02T06:45:00Z,29.1144,-90.1840,17.71,11111222 
LUMCON,ioos:station:LUMCON:wisl1:1,2019-09-02T07:00:00Z,29.1144,-90.1840,15.57,11111222 
LUMCON,ioos:station:LUMCON:wisl1:1,2019-09-02T07:15:00Z,29.1144,-90.1840,16.42,11111222 
LUMCON,ioos:station:LUMCON:wisl1:1,2019-09-02T07:30:00Z,29.1144,-90.1840,16.13,11111222 
LUMCON,ioos:station:LUMCON:wisl1:1,2019-09-02T07:45:00Z,29.1144,-90.1840,16.74,11111222 
LUMCON,ioos:station:LUMCON:wisl1:1,2019-09-02T08:00:00Z,29.1144,-90.1840,18.26,11111222 
LUMCON,ioos:station:LUMCON:wisl1:1,2019-09-02T08:15:00Z,29.1144,-90.1840,14.31,11111222 
LUMCON,ioos:station:LUMCON:wisl1:1,2019-09-02T08:30:00Z,29.1144,-90.1840,13.79,11111222 
LUMCON,ioos:station:LUMCON:wisl1:1,2019-09-02T08:45:00Z,29.1144,-90.1840,15.38,11111222 
LUMCON,ioos:station:LUMCON:wisl1:1,2019-09-02T09:00:00Z,29.1144,-90.1840,13.37,11111222 
LUMCON,ioos:station:LUMCON:wisl1:1,2019-09-02T09:15:00Z,29.1144,-90.1840,13.64,11111222 
LUMCON,ioos:station:LUMCON:wisl1:1,2019-09-02T09:30:00Z,29.1144,-90.1840,11.74,11111222 
LUMCON,ioos:station:LUMCON:wisl1:1,2019-09-02T09:45:00Z,29.1144,-90.1840,10.61,11111222 
LUMCON,ioos:station:LUMCON:wisl1:1,2019-09-02T10:00:00Z,29.1144,-90.1840,9.17,11111222 
LUMCON,ioos:station:LUMCON:wisl1:1,2019-09-02T10:15:00Z,29.1144,-90.1840,7.84,11111222 
LUMCON,ioos:station:LUMCON:wisl1:1,2019-09-02T10:30:00Z,29.1144,-90.1840,6.4,11111222 
LUMCON,ioos:station:LUMCON:wisl1:1,2019-09-02T10:45:00Z,29.1144,-90.1840,6.08,11111222 
LUMCON,ioos:station:LUMCON:wisl1:1,2019-09-02T11:00:00Z,29.1144,-90.1840,6.28,11111222 
LUMCON,ioos:station:LUMCON:wisl1:1,2019-09-02T11:15:00Z,29.1144,-90.1840,6.33,11111222 
LUMCON,ioos:station:LUMCON:wisl1:1,2019-09-02T11:30:00Z,29.1144,-90.1840,6.51,11111222 
LUMCON,ioos:station:LUMCON:wisl1:1,2019-09-02T11:45:00Z,29.1144,-90.1840,7.15,11111222 
LUMCON,ioos:station:LUMCON:wisl1:1,2019-09-02T12:00:00Z,29.1144,-90.1840,7.03,11111222 
LUMCON,ioos:station:LUMCON:wisl1:1,2019-09-02T12:15:00Z,29.1144,-90.1840,7.59,11111222 
LUMCON,ioos:station:LUMCON:wisl1:1,2019-09-02T12:30:00Z,29.1144,-90.1840,6.3,11111222 
LUMCON,ioos:station:LUMCON:wisl1:1,2019-09-02T12:45:00Z,29.1144,-90.1840,7.42,11111222 
LUMCON,ioos:station:LUMCON:wisl1:1,2019-09-02T13:30:00Z,29.1144,-90.1840,7.99,11111222 
LUMCON,ioos:station:LUMCON:wisl1:1,2019-09-02T13:45:00Z,29.1144,-90.1840,7.43,11111222 
LUMCON,ioos:station:LUMCON:wisl1:1,2019-09-02T14:00:00Z,29.1144,-90.1840,8.36,11111222 
LUMCON,ioos:station:LUMCON:wisl1:1,2019-09-02T14:15:00Z,29.1144,-90.1840,8.42,11111222 
LUMCON,ioos:station:LUMCON:wisl1:1,2019-09-02T14:30:00Z,29.1144,-90.1840,9.52,11111222 
LUMCON,ioos:station:LUMCON:wisl1:1,2019-09-02T14:45:00Z,29.1144,-90.1840,9.6,11111222 
LUMCON,ioos:station:LUMCON:wisl1:1,2019-09-02T15:00:00Z,29.1144,-90.1840,10.36,11111222 
LUMCON,ioos:station:LUMCON:wisl1:1,2019-09-02T15:15:00Z,29.1144,-90.1840,10.83,11111222 
LUMCON,ioos:station:LUMCON:wisl1:1,2019-09-02T15:30:00Z,29.1144,-90.1840,11.59,11111222 
LUMCON,ioos:station:LUMCON:wisl1:1,2019-09-02T15:45:00Z,29.1144,-90.1840,11.89,11111222 
LUMCON,ioos:station:LUMCON:wisl1:1,2019-09-02T16:00:00Z,29.1144,-90.1840,11.19,11111222 
LUMCON,ioos:station:LUMCON:wisl1:1,2019-09-02T16:15:00Z,29.1144,-90.1840,11.85,11111222 
LUMCON,ioos:station:LUMCON:wisl1:1,2019-09-02T16:30:00Z,29.1144,-90.1840,11.87,11111222 
LUMCON,ioos:station:LUMCON:wisl1:1,2019-09-02T16:45:00Z,29.1144,-90.1840,12.21,11111222 
LUMCON,ioos:station:LUMCON:wisl1:1,2019-09-02T17:00:00Z,29.1144,-90.1840,13.41,11111222 
LUMCON,ioos:station:LUMCON:wisl1:1,2019-09-02T17:15:00Z,29.1144,-90.1840,14.7,11111222 
LUMCON,ioos:station:LUMCON:wisl1:1,2019-09-02T17:30:00Z,29.1144,-90.1840,15.2,11111222 
LUMCON,ioos:station:LUMCON:wisl1:1,2019-09-02T17:45:00Z,29.1144,-90.1840,15.62,11111222 
LUMCON,ioos:station:LUMCON:wisl1:1,2019-09-02T18:00:00Z,29.1144,-90.1840,16.23,11111222 
LUMCON,ioos:station:LUMCON:wisl1:1,2019-09-02T18:15:00Z,29.1144,-90.1840,14.59,11111222 
LUMCON,ioos:station:LUMCON:wisl1:1,2019-09-02T18:30:00Z,29.1144,-90.1840,16.92,11111222 
LUMCON,ioos:station:LUMCON:wisl1:1,2019-09-02T18:45:00Z,29.1144,-90.1840,18.01,11111222 
LUMCON,ioos:station:LUMCON:wisl1:1,2019-09-02T19:00:00Z,29.1144,-90.1840,18.68,11111222 
LUMCON,ioos:station:LUMCON:wisl1:1,2019-09-02T19:15:00Z,29.1144,-90.1840,21.36,11111222 
LUMCON,ioos:station:LUMCON:wisl1:1,2019-09-02T19:30:00Z,29.1144,-90.1840,20.94,11111222 
LUMCON,ioos:station:LUMCON:wisl1:1,2019-09-02T19:45:00Z,29.1144,-90.1840,22.06,11111222 
LUMCON,ioos:station:LUMCON:wisl1:1,2019-09-02T20:00:00Z,29.1144,-90.1840,23.02,11111222 
LUMCON,ioos:station:LUMCON:wisl1:1,2019-09-02T20:15:00Z,29.1144,-90.1840,20.15,11111222 
LUMCON,ioos:station:LUMCON:wisl1:1,2019-09-02T20:30:00Z,29.1144,-90.1840,21.62,11111222 
LUMCON,ioos:station:LUMCON:wisl1:1,2019-09-02T20:45:00Z,29.1144,-90.1840,22.74,11111222 
LUMCON,ioos:station:LUMCON:wisl1:1,2019-09-02T21:00:00Z,29.1144,-90.1840,22.32,11111222 
LUMCON,ioos:station:LUMCON:wisl1:1,2019-09-02T21:15:00Z,29.1144,-90.1840,25.43,11111222 
LUMCON,ioos:station:LUMCON:wisl1:1,2019-09-02T21:30:00Z,29.1144,-90.1840,22.23,11111222 
LUMCON,ioos:station:LUMCON:wisl1:1,2019-09-02T21:45:00Z,29.1144,-90.1840,22.36,11111222 
LUMCON,ioos:station:LUMCON:wisl1:1,2019-09-02T22:00:00Z,29.1144,-90.1840,22.49,11111222 
LUMCON,ioos:station:LUMCON:wisl1:1,2019-09-02T22:15:00Z,29.1144,-90.1840,20.38,11111222 
LUMCON,ioos:station:LUMCON:wisl1:1,2019-09-02T22:30:00Z,29.1144,-90.1840,18.58,11111222 
LUMCON,ioos:station:LUMCON:wisl1:1,2019-09-02T22:45:00Z,29.1144,-90.1840,16.89,11111222 
LUMCON,ioos:station:LUMCON:wisl1:1,2019-09-02T23:00:00Z,29.1144,-90.1840,13.31,11111222 
LUMCON,ioos:station:LUMCON:wisl1:1,2019-09-02T23:15:00Z,29.1144,-90.1840,12.88,11111222 
LUMCON,ioos:station:LUMCON:wisl1:1,2019-09-02T23:30:00Z,29.1144,-90.1840,11.99,11111222 
LUMCON,ioos:station:LUMCON:wisl1:1,2019-09-02T23:45:00Z,29.1144,-90.1840,12.15,11111222 
LUMCON,ioos:station:LUMCON:wisl1:1,2019-09-03T00:00:00Z,29.1144,-90.1840,10.59,11111222 
LUMCON,ioos:station:LUMCON:wisl1:1,2019-09-03T00:15:00Z,29.1144,-90.1840,10.67,11111222 
LUMCON,ioos:station:LUMCON:wisl1:1,2019-09-03T00:30:00Z,29.1144,-90.1840,9.35,11111222 
LUMCON,ioos:station:LUMCON:wisl1:1,2019-09-03T00:45:00Z,29.1144,-90.1840,14.08,11111222 
LUMCON,ioos:station:LUMCON:wisl1:1,2019-09-03T01:00:00Z,29.1144,-90.1840,9.48,11111222 
LUMCON,ioos:station:LUMCON:wisl1:1,2019-09-03T01:15:00Z,29.1144,-90.1840,7.32,11111222 
LUMCON,ioos:station:LUMCON:wisl1:1,2019-09-03T01:30:00Z,29.1144,-90.1840,6.9,11111222 
LUMCON,ioos:station:LUMCON:wisl1:1,2019-09-03T01:45:00Z,29.1144,-90.1840,6.83,11111222 
LUMCON,ioos:station:LUMCON:wisl1:1,2019-09-03T02:00:00Z,29.1144,-90.1840,7.25,11111222 
LUMCON,ioos:station:LUMCON:wisl1:1,2019-09-03T02:15:00Z,29.1144,-90.1840,6.69,11111222 
LUMCON,ioos:station:LUMCON:wisl1:1,2019-09-03T02:30:00Z,29.1144,-90.1840,6.48,11111222 
LUMCON,ioos:station:LUMCON:wisl1:1,2019-09-03T02:45:00Z,29.1144,-90.1840,6.17,11111222 
LUMCON,ioos:station:LUMCON:wisl1:1,2019-09-03T03:00:00Z,29.1144,-90.1840,6.04,11111222 
LUMCON,ioos:station:LUMCON:wisl1:1,2019-09-03T03:15:00Z,29.1144,-90.1840,6.21,11111222 
LUMCON,ioos:station:LUMCON:wisl1:1,2019-09-03T03:30:00Z,29.1144,-90.1840,6.23,11111222 
LUMCON,ioos:station:LUMCON:wisl1:1,2019-09-03T03:45:00Z,29.1144,-90.1840,6.49,11111222 
LUMCON,ioos:station:LUMCON:wisl1:1,2019-09-03T04:00:00Z,29.1144,-90.1840,6.43,11111222 
LUMCON,ioos:station:LUMCON:wisl1:1,2019-09-03T04:15:00Z,29.1144,-90.1840,6.03,11111222 
LUMCON,ioos:station:LUMCON:wisl1:1,2019-09-03T04:30:00Z,29.1144,-90.1840,6.36,11111222 
LUMCON,ioos:station:LUMCON:wisl1:1,2019-09-03T04:45:00Z,29.1144,-90.1840,6.24,11111222 
LUMCON,ioos:station:LUMCON:wisl1:1,2019-09-03T05:00:00Z,29.1144,-90.1840,6.17,11111222 
LUMCON,ioos:station:LUMCON:wisl1:1,2019-09-03T05:15:00Z,29.1144,-90.1840,6.06,11111222 
LUMCON,ioos:station:LUMCON:wisl1:1,2019-09-03T05:30:00Z,29.1144,-90.1840,6.0,11111222 
LUMCON,ioos:station:LUMCON:wisl1:1,2019-09-03T05:45:00Z,29.1144,-90.1840,6.07,11111222 
LUMCON,ioos:station:LUMCON:wisl1:1,2019-09-03T06:00:00Z,29.1144,-90.1840,6.08,11111222 
LUMCON,ioos:station:LUMCON:wisl1:1,2019-09-03T06:15:00Z,29.1144,-90.1840,6.39,11111222 
LUMCON,ioos:station:LUMCON:wisl1:1,2019-09-03T06:30:00Z,29.1144,-90.1840,6.33,11111222 
LUMCON,ioos:station:LUMCON:wisl1:1,2019-09-03T06:45:00Z,29.1144,-90.1840,5.92,11111222 
LUMCON,ioos:station:LUMCON:wisl1:1,2019-09-03T07:00:00Z,29.1144,-90.1840,5.82,11111222 
LUMCON,ioos:station:LUMCON:wisl1:1,2019-09-03T07:15:00Z,29.1144,-90.1840,5.64,11111222 
LUMCON,ioos:station:LUMCON:wisl1:1,2019-09-03T07:30:00Z,29.1144,-90.1840,5.47,11111222 
LUMCON,ioos:station:LUMCON:wisl1:1,2019-09-03T07:45:00Z,29.1144,-90.1840,5.48,11111222 
LUMCON,ioos:station:LUMCON:wisl1:1,2019-09-03T08:00:00Z,29.1144,-90.1840,5.64,11111222 
LUMCON,ioos:station:LUMCON:wisl1:1,2019-09-03T08:15:00Z,29.1144,-90.1840,5.87,11111222 
LUMCON,ioos:station:LUMCON:wisl1:1,2019-09-03T08:30:00Z,29.1144,-90.1840,5.7,11111222 
LUMCON,ioos:station:LUMCON:wisl1:1,2019-09-03T08:45:00Z,29.1144,-90.1840,5.46,11111222 
LUMCON,ioos:station:LUMCON:wisl1:1,2019-09-03T09:00:00Z,29.1144,-90.1840,5.8,11111222 
LUMCON,ioos:station:LUMCON:wisl1:1,2019-09-03T09:15:00Z,29.1144,-90.1840,6.57,11111222 
LUMCON,ioos:station:LUMCON:wisl1:1,2019-09-03T09:30:00Z,29.1144,-90.1840,7.31,11111222 
LUMCON,ioos:station:LUMCON:wisl1:1,2019-09-03T09:45:00Z,29.1144,-90.1840,7.57,11111222 
LUMCON,ioos:station:LUMCON:wisl1:1,2019-09-03T10:00:00Z,29.1144,-90.1840,7.28,11111222 
LUMCON,ioos:station:LUMCON:wisl1:1,2019-09-03T10:15:00Z,29.1144,-90.1840,8.36,11111222 
LUMCON,ioos:station:LUMCON:wisl1:1,2019-09-03T10:30:00Z,29.1144,-90.1840,9.25,11111222 
LUMCON,ioos:station:LUMCON:wisl1:1,2019-09-03T10:45:00Z,29.1144,-90.1840,8.67,11111222 
LUMCON,ioos:station:LUMCON:wisl1:1,2019-09-03T11:00:00Z,29.1144,-90.1840,8.73,11111222 
LUMCON,ioos:station:LUMCON:wisl1:1,2019-09-03T11:15:00Z,29.1144,-90.1840,8.36,11111222 
LUMCON,ioos:station:LUMCON:wisl1:1,2019-09-03T11:30:00Z,29.1144,-90.1840,7.52,11111222 
LUMCON,ioos:station:LUMCON:wisl1:1,2019-09-03T11:45:00Z,29.1144,-90.1840,8.23,11111222 
LUMCON,ioos:station:LUMCON:wisl1:1,2019-09-03T12:00:00Z,29.1144,-90.1840,7.3,11111222 
LUMCON,ioos:station:LUMCON:wisl1:1,2019-09-03T12:15:00Z,29.1144,-90.1840,6.93,11111222 
LUMCON,ioos:station:LUMCON:wisl1:1,2019-09-03T12:30:00Z,29.1144,-90.1840,7.8,11111222 
LUMCON,ioos:station:LUMCON:wisl1:1,2019-09-03T12:45:00Z,29.1144,-90.1840,8.36,11111222 
LUMCON,ioos:station:LUMCON:wisl1:1,2019-09-03T13:00:00Z,29.1144,-90.1840,8.44,11111222 
LUMCON,ioos:station:LUMCON:wisl1:1,2019-09-03T13:15:00Z,29.1144,-90.1840,8.22,11111222 
LUMCON,ioos:station:LUMCON:wisl1:1,2019-09-03T13:30:00Z,29.1144,-90.1840,8.35,11111222 
LUMCON,ioos:station:LUMCON:wisl1:1,2019-09-03T13:45:00Z,29.1144,-90.1840,8.74,11111222 
LUMCON,ioos:station:LUMCON:wisl1:1,2019-09-03T14:00:00Z,29.1144,-90.1840,9.08,11111222 
LUMCON,ioos:station:LUMCON:wisl1:1,2019-09-03T14:15:00Z,29.1144,-90.1840,9.97,11111222 
LUMCON,ioos:station:LUMCON:wisl1:1,2019-09-03T14:30:00Z,29.1144,-90.1840,9.58,11111222 
LUMCON,ioos:station:LUMCON:wisl1:1,2019-09-03T14:45:00Z,29.1144,-90.1840,9.29,11111222 
LUMCON,ioos:station:LUMCON:wisl1:1,2019-09-03T15:00:00Z,29.1144,-90.1840,10.26,11111222 
LUMCON,ioos:station:LUMCON:wisl1:1,2019-09-03T15:15:00Z,29.1144,-90.1840,9.94,11111222 
LUMCON,ioos:station:LUMCON:wisl1:1,2019-09-03T15:30:00Z,29.1144,-90.1840,11.04,11111222 
LUMCON,ioos:station:LUMCON:wisl1:1,2019-09-03T15:45:00Z,29.1144,-90.1840,10.8,11111222 
LUMCON,ioos:station:LUMCON:wisl1:1,2019-09-03T16:00:00Z,29.1144,-90.1840,11.82,11111222 
LUMCON,ioos:station:LUMCON:wisl1:1,2019-09-03T16:15:00Z,29.1144,-90.1840,12.15,11111222 
LUMCON,ioos:station:LUMCON:wisl1:1,2019-09-03T16:30:00Z,29.1144,-90.1840,13.05,11111222 
LUMCON,ioos:station:LUMCON:wisl1:1,2019-09-03T16:45:00Z,29.1144,-90.1840,13.18,11111222 
LUMCON,ioos:station:LUMCON:wisl1:1,2019-09-03T17:00:00Z,29.1144,-90.1840,13.41,11111222 
LUMCON,ioos:station:LUMCON:wisl1:1,2019-09-03T17:15:00Z,29.1144,-90.1840,14.3,11111222 
LUMCON,ioos:station:LUMCON:wisl1:1,2019-09-03T17:30:00Z,29.1144,-90.1840,14.63,11111222 
LUMCON,ioos:station:LUMCON:wisl1:1,2019-09-03T17:45:00Z,29.1144,-90.1840,15.17,11111222 
LUMCON,ioos:station:LUMCON:wisl1:1,2019-09-03T18:00:00Z,29.1144,-90.1840,15.9,11111222 
LUMCON,ioos:station:LUMCON:wisl1:1,2019-09-03T18:15:00Z,29.1144,-90.1840,16.28,11111222 
LUMCON,ioos:station:LUMCON:wisl1:1,2019-09-03T18:30:00Z,29.1144,-90.1840,16.69,11111222 
LUMCON,ioos:station:LUMCON:wisl1:1,2019-09-03T18:45:00Z,29.1144,-90.1840,17.73,11111222 
LUMCON,ioos:station:LUMCON:wisl1:1,2019-09-03T19:00:00Z,29.1144,-90.1840,19.2,11111222 
LUMCON,ioos:station:LUMCON:wisl1:1,2019-09-03T19:15:00Z,29.1144,-90.1840,21.21,11111222 
LUMCON,ioos:station:LUMCON:wisl1:1,2019-09-03T19:30:00Z,29.1144,-90.1840,19.27,11111222 
LUMCON,ioos:station:LUMCON:wisl1:1,2019-09-03T19:45:00Z,29.1144,-90.1840,21.87,11111222 